Welcome to mirrors.dotsrc.org

All our mirrors of open source software are available via http, https, ftp and an onion service. More information about our mirrors including statistics and contact information is available on our mirror info pages.

For information about dotsrc.org and our other services please go to our website.

Index of /mirrors/mirrors/mirrors/parrot/pool/main/k/

File Name  ↓ File Size  ↓ Date  ↓ 
Parent directory/--
knot-resolver/-2024-02-28 18:06:28
krb5/-2024-02-17 13:31:16
kustomize/-2024-02-17 13:30:48
kismet/-2024-02-17 13:30:48
kbuild/-2024-02-17 13:30:48
kicad/-2024-01-21 18:49:42
kicad-packages3d/-2024-01-21 18:49:42
kicad-footprints/-2024-01-21 18:49:42
kicad-symbols/-2024-01-21 18:49:42
kernel-wedge/-2024-01-21 18:46:53
kubernetes-helm/-2023-12-01 19:58:32
koadic/-2023-12-01 19:47:34
kismet-docs/-2023-12-01 19:47:34
kerberoast/-2023-12-01 19:47:32
kicad-templates/-2023-12-01 19:37:30
keystone-engine/-2023-11-30 06:36:51
knack/-2023-11-30 06:23:19
knitpy/-2023-11-30 06:23:18
kineticstools/-2023-11-30 06:23:18
kitchen/-2023-11-30 06:23:18
keras/-2023-11-30 06:23:18
kiwisolver/-2023-11-30 06:23:18
keyman-config/-2023-11-30 06:23:18
knot/-2023-11-30 06:23:18
keyrings.alt/-2023-11-30 06:23:18
kivy/-2023-11-30 06:23:18
kombu/-2023-11-30 06:23:18
kazoo/-2023-11-30 06:23:18
klaus/-2023-11-30 06:23:18
keystone/-2023-11-30 06:23:18
kernelshark/-2023-11-12 18:38:47
kmer/-2023-10-28 13:01:29
kernsmooth/-2023-10-28 13:00:55
ktikz/-2023-10-28 13:00:45
kopeninghours/-2023-10-28 13:00:37
kpeople/-2023-10-28 13:00:37
kosmindoormap/-2023-10-28 13:00:37
knewstuff/-2023-10-28 13:00:37
ktp-common-internals/-2023-10-28 13:00:37
kpublictransport/-2023-10-28 13:00:37
krunner/-2023-10-28 13:00:37
kquickimageeditor/-2023-10-28 13:00:37
kirigami-addons/-2023-10-28 13:00:37
kdeclarative/-2023-10-28 13:00:37
kitemmodels/-2023-10-28 13:00:37
knotifications/-2023-10-28 13:00:37
kirigami2/-2023-10-28 13:00:37
kquickcharts/-2023-10-28 13:00:37
kuserfeedback/-2023-10-28 13:00:37
ksyntax-highlighting/-2023-10-28 13:00:37
kpipewire/-2023-10-28 13:00:37
kqtquickcharts/-2023-10-28 13:00:36
ki18n/-2023-10-28 13:00:36
kaccounts-integration/-2023-10-28 13:00:36
kcmutils/-2023-10-28 13:00:36
kholidays/-2023-10-28 13:00:36
kactivities-kf5/-2023-10-28 13:00:36
kdeplasma-addons/-2023-10-28 12:59:54
kdevelop/-2023-10-28 12:59:54
ktp-contact-runner/-2023-10-28 12:59:54
kdrill/-2023-10-28 12:58:58
kdegraphics-mobipocket/-2023-10-28 12:54:04
kwallet-pam/-2023-10-28 12:53:46
khmer/-2023-10-28 12:53:45
kronosnet/-2023-10-28 12:53:28
kvirc/-2023-10-28 12:53:00
kwallet-kf5/-2023-10-28 12:53:00
kyotocabinet/-2023-10-28 12:53:00
kwin/-2023-10-28 12:53:00
kaddressbook/-2023-10-28 12:52:59
kitinerary/-2023-10-28 12:52:59
kpmcore/-2023-10-28 12:52:59
ksanecore/-2023-10-28 12:52:59
kseexpr/-2023-10-28 12:52:59
ksmtp/-2023-10-28 12:52:59
kscreenlocker/-2023-10-28 12:52:59
kpkpass/-2023-10-28 12:52:59
kissfft/-2023-10-28 12:52:58
kimageannotator/-2023-10-28 12:52:58
kickpass/-2023-10-28 12:52:58
keyman/-2023-10-28 12:52:58
kmod/-2023-10-28 12:52:58
kim-api/-2023-10-28 12:52:58
kmflcomp/-2023-10-28 12:52:58
kmc/-2023-10-28 12:52:58
klibc/-2023-10-28 12:52:58
kompare/-2023-10-28 12:52:58
ktextwidgets/-2023-10-28 12:52:57
kwayland/-2023-10-28 12:52:57
kxmlrpcclient/-2023-10-28 12:52:57
kf5-messagelib/-2023-10-28 12:52:57
kdesu/-2023-10-28 12:52:57
ktnef/-2023-10-28 12:52:57
ktexteditor/-2023-10-28 12:52:57
kwindowsystem/-2023-10-28 12:52:57
kunitconversion/-2023-10-28 12:52:57
kwidgetsaddons/-2023-10-28 12:52:57
kxmlgui/-2023-10-28 12:52:57
kdewebkit/-2023-10-28 12:52:57
kpackage/-2023-10-28 12:52:56
kparts/-2023-10-28 12:52:56
kplotting/-2023-10-28 12:52:56
kpimtextedit/-2023-10-28 12:52:56
knotifyconfig/-2023-10-28 12:52:56
kpty/-2023-10-28 12:52:56
kservice/-2023-10-28 12:52:56
kmime/-2023-10-28 12:52:55
kjs/-2023-10-28 12:52:55
konqueror/-2023-10-28 12:52:55
kmailtransport/-2023-10-28 12:52:55
kontactinterface/-2023-10-28 12:52:55
kmediaplayer/-2023-10-28 12:52:55
kmbox/-2023-10-28 12:52:55
kross/-2023-10-28 12:52:55
kldap/-2023-10-28 12:52:55
kio/-2023-10-28 12:52:54
khtml/-2023-10-28 12:52:54
kitemviews/-2023-10-28 12:52:54
kidletime/-2023-10-28 12:52:54
kjsembed/-2023-10-28 12:52:54
kiconthemes/-2023-10-28 12:52:54
kidentitymanagement/-2023-10-28 12:52:54
kdelibs4support/-2023-10-28 12:52:54
kjobwidgets/-2023-10-28 12:52:54
kimap/-2023-10-28 12:52:54
kemoticons/-2023-10-28 12:52:53
kconfig/-2023-10-28 12:52:53
kcompletion/-2023-10-28 12:52:53
kglobalaccel/-2023-10-28 12:52:53
kcoreaddons/-2023-10-28 12:52:53
kdnssd-kf5/-2023-10-28 12:52:53
kcrash/-2023-10-28 12:52:53
kfilemetadata-kf5/-2023-10-28 12:52:53
kdoctools/-2023-10-28 12:52:53
kguiaddons/-2023-10-28 12:52:53
kcontacts/-2023-10-28 12:52:53
kconfigwidgets/-2023-10-28 12:52:53
kdav/-2023-10-28 12:52:53
kdbusaddons/-2023-10-28 12:52:53
kcodecs/-2023-10-28 12:52:52
kcalcore/-2023-10-28 12:52:52
kcalutils/-2023-10-28 12:52:52
kbookmarks/-2023-10-28 12:52:52
karchive/-2023-10-28 12:52:52
kauth/-2023-10-28 12:52:52
kactivities-stats/-2023-10-28 12:52:51
k3b/-2023-10-28 12:52:51
kafs-client/-2023-10-28 12:52:51
keyutils/-2023-10-28 12:52:51
kdecoration/-2023-10-28 12:52:51
kdb/-2023-10-28 12:52:51
kdsoap/-2023-10-28 12:52:51
kcolorpicker/-2023-10-28 12:52:51
kylin-burner/-2023-10-28 12:50:48
kwayland-integration/-2023-10-28 12:50:22
kylin-nm/-2023-10-28 12:50:22
kyua/-2023-10-28 12:50:22
kwave/-2023-10-28 12:50:22
kwrited/-2023-10-28 12:50:22
kylin-video/-2023-10-28 12:50:22
kubernetes-split-yaml/-2023-10-28 12:50:22
kwordquiz/-2023-10-28 12:50:22
kubernetes/-2023-10-28 12:50:22
kubrick/-2023-10-28 12:50:22
kwalletmanager/-2023-10-28 12:50:22
kup-backup/-2023-10-28 12:50:22
kuvert/-2023-10-28 12:50:22
kylin-scanner/-2023-10-28 12:50:22
kate/-2023-10-28 12:50:22
kylin-display-switch/-2023-10-28 12:50:22
kde-dev-utils/-2023-10-28 12:50:22
kxd/-2023-10-28 12:50:22
kworkflow/-2023-10-28 12:50:22
kteatime/-2023-10-28 12:50:21
kstart/-2023-10-28 12:50:21
kross-interpreters/-2023-10-28 12:50:21
ktouch/-2023-10-28 12:50:21
ksnip/-2023-10-28 12:50:21
kstars/-2023-10-28 12:50:21
ksshaskpass/-2023-10-28 12:50:21
ktrip/-2023-10-28 12:50:21
ktorrent/-2023-10-28 12:50:21
krusader/-2023-10-28 12:50:21
kshutdown/-2023-10-28 12:50:21
kruler/-2023-10-28 12:50:21
kubecolor/-2023-10-28 12:50:21
kst/-2023-10-28 12:50:21
ktuberling/-2023-10-28 12:50:21
ksmbd-tools/-2023-10-28 12:50:21
ksudoku/-2023-10-28 12:50:21
ksirk/-2023-10-28 12:50:21
kturtle/-2023-10-28 12:50:21
kshisen/-2023-10-28 12:50:21
ksystemlog/-2023-10-28 12:50:21
kspaceduel/-2023-10-28 12:50:21
ksystemstats/-2023-10-28 12:50:21
ktimer/-2023-10-28 12:50:21
kscreen/-2023-10-28 12:50:21
ktx/-2023-10-28 12:50:21
ksmtuned/-2023-10-28 12:50:21
ksnakeduel/-2023-10-28 12:50:21
ksquares/-2023-10-28 12:50:21
ksh93u+m/-2023-10-28 12:50:21
kraken/-2023-10-28 12:50:20
krb5-sync/-2023-10-28 12:50:20
kreversi/-2023-10-28 12:50:20
krb5-auth-dialog/-2023-10-28 12:50:20
kpat/-2023-10-28 12:50:20
kpeoplevcard/-2023-10-28 12:50:20
kronometer/-2023-10-28 12:50:20
krename/-2023-10-28 12:50:20
krfb/-2023-10-28 12:50:20
kristall/-2023-10-28 12:50:20
kphotoalbum/-2023-10-28 12:50:20
krdc/-2023-10-28 12:50:20
kraft/-2023-10-28 12:50:20
kraken2/-2023-10-28 12:50:20
krita/-2023-10-28 12:50:20
kodi-visualization-waveform/-2023-10-28 12:50:19
kore/-2023-10-28 12:50:19
kookbook/-2023-10-28 12:50:19
kolf/-2023-10-28 12:50:19
konquest/-2023-10-28 12:50:19
kodi-vfs-sftp/-2023-10-28 12:50:19
kolourpaint/-2023-10-28 12:50:19
komposter/-2023-10-28 12:50:19
konwert/-2023-10-28 12:50:19
kontrast/-2023-10-28 12:50:19
korganizer/-2023-10-28 12:50:19
kollision/-2023-10-28 12:50:19
kodi-visualization-spectrum/-2023-10-28 12:50:19
kodi-screensaver-shadertoy/-2023-10-28 12:50:19
konversation/-2023-10-28 12:50:19
kodi-visualization-fishbmc/-2023-10-28 12:50:19
koules/-2023-10-28 12:50:19
kodi-visualization-shadertoy/-2023-10-28 12:50:19
konsole/-2023-10-28 12:50:19
kodi-vfs-libarchive/-2023-10-28 12:50:19
kongress/-2023-10-28 12:50:19
kodi/-2023-10-28 12:50:19
kontact/-2023-10-28 12:50:19
kodi-visualization-pictureit/-2023-10-28 12:50:19
konclude/-2023-10-28 12:50:19
kodi-pvr-wmc/-2023-10-28 12:50:18
kodi-pvr-sledovanitv-cz/-2023-10-28 12:50:18
kodi-pvr-njoy/-2023-10-28 12:50:18
kodi-pvr-teleboy/-2023-10-28 12:50:18
kodi-imagedecoder-raw/-2023-10-28 12:50:18
kodi-pvr-hts/-2023-10-28 12:50:18
kodi-pvr-nextpvr/-2023-10-28 12:50:18
kodi-pvr-mythtv/-2023-10-28 12:50:18
kodi-pvr-filmon/-2023-10-28 12:50:18
kodi-inputstream-ffmpegdirect/-2023-10-28 12:50:18
kodi-pvr-hdhomerun/-2023-10-28 12:50:18
kodi-pvr-vuplus/-2023-10-28 12:50:18
kodi-peripheral-xarcade/-2023-10-28 12:50:18
kodi-screensaver-greynetic/-2023-10-28 12:50:18
kodi-pvr-dvblink/-2023-10-28 12:50:18
kodi-pvr-vbox/-2023-10-28 12:50:18
kodi-pvr-iptvsimple/-2023-10-28 12:50:18
kodi-screensaver-pingpong/-2023-10-28 12:50:18
kodi-inputstream-rtmp/-2023-10-28 12:50:18
kodi-pvr-vdr-vnsi/-2023-10-28 12:50:18
kodi-pvr-stalker/-2023-10-28 12:50:18
kodi-audioencoder-wav/-2023-10-28 12:50:18
kodi-pvr-octonet/-2023-10-28 12:50:18
kodi-pvr-zattoo/-2023-10-28 12:50:18
kodi-pvr-waipu/-2023-10-28 12:50:18
kodi-screensaver-biogenesis/-2023-10-28 12:50:18
kodi-game-libretro/-2023-10-28 12:50:18
kodi-pvr-pctv/-2023-10-28 12:50:18
kodi-peripheral-joystick/-2023-10-28 12:50:18
kodi-pvr-mediaportal-tvserver/-2023-10-28 12:50:18
kodi-pvr-argustv/-2023-10-28 12:50:18
kodi-inputstream-adaptive/-2023-10-28 12:50:18
kodi-imagedecoder-heif/-2023-10-28 12:50:18
kodi-screensaver-asteroids/-2023-10-28 12:50:18
kodi-pvr-dvbviewer/-2023-10-28 12:50:18
kodi-screensaver-pyro/-2023-10-28 12:50:18
knxd/-2023-10-28 12:50:17
kodi-audiodecoder-openmpt/-2023-10-28 12:50:17
knetwalk/-2023-10-28 12:50:17
kodi-audiodecoder-fluidsynth/-2023-10-28 12:50:17
kmerresistance/-2023-10-28 12:50:17
kmymoney/-2023-10-28 12:50:17
kmscon/-2023-10-28 12:50:17
kodi-audiodecoder-sidplay/-2023-10-28 12:50:17
kodi-audioencoder-vorbis/-2023-10-28 12:50:17
kmenuedit/-2023-10-28 12:50:17
kmines/-2023-10-28 12:50:17
kmouth/-2023-10-28 12:50:17
kmousetool/-2023-10-28 12:50:17
kodi-audioencoder-flac/-2023-10-28 12:50:17
knights/-2023-10-28 12:50:17
knockd/-2023-10-28 12:50:17
kodi-audioencoder-lame/-2023-10-28 12:50:17
knews/-2023-10-28 12:50:17
kmplot/-2023-10-28 12:50:17
kmix/-2023-10-28 12:50:17
knavalbattle/-2023-10-28 12:50:17
knotes/-2023-10-28 12:50:17
kmetronome/-2023-10-28 12:50:17
kjumpingcube/-2023-10-28 12:50:16
klettres/-2023-10-28 12:50:16
klayout/-2023-10-28 12:50:16
klog/-2023-10-28 12:50:16
kjots/-2023-10-28 12:50:16
kleopatra/-2023-10-28 12:50:16
kluppe/-2023-10-28 12:50:16
klickety/-2023-10-28 12:50:16
klustakwik/-2023-10-28 12:50:16
kmag/-2023-10-28 12:50:16
kma/-2023-10-28 12:50:16
kiwix-tools/-2023-10-28 12:50:16
kleborate/-2023-10-28 12:50:16
kmahjongg/-2023-10-28 12:50:16
kiwi/-2023-10-28 12:50:16
kiwix/-2023-10-28 12:50:16
klines/-2023-10-28 12:50:16
kmail/-2023-10-28 12:50:16
killbots/-2023-10-28 12:50:15
kio-admin/-2023-10-28 12:50:15
kissplice/-2023-10-28 12:50:15
kigo/-2023-10-28 12:50:15
kio-extras/-2023-10-28 12:50:15
kimagemapeditor/-2023-10-28 12:50:15
kiriki/-2023-10-28 12:50:15
kinfocenter/-2023-10-28 12:50:15
king-probe/-2023-10-28 12:50:15
kid3/-2023-10-28 12:50:15
kio-fuse/-2023-10-28 12:50:15
kildclient/-2023-10-28 12:50:15
kirigami-gallery/-2023-10-28 12:50:15
kitty/-2023-10-28 12:50:15
kinput2/-2023-10-28 12:50:15
kio-gdrive/-2023-10-28 12:50:15
kiten/-2023-10-28 12:50:15
kipi-plugins/-2023-10-28 12:50:15
kinit/-2023-10-28 12:50:15
kdesdk-kioslaves/-2023-10-28 12:50:15
kig/-2023-10-28 12:50:15
kimageformats/-2023-10-28 12:50:15
kgpg/-2023-10-28 12:50:14
khotkeys/-2023-10-28 12:50:14
khangman/-2023-10-28 12:50:14
kgoldrunner/-2023-10-28 12:50:14
kgeotag/-2023-10-28 12:50:14
kget/-2023-10-28 12:50:14
kdesignerplugin/-2023-10-28 12:50:14
khelpcenter/-2023-10-28 12:50:14
kickoff/-2023-10-28 12:50:14
kgeography/-2023-10-28 12:50:14
kexi/-2023-10-28 12:50:13
kdialog/-2023-10-28 12:50:13
keepalived/-2023-10-28 12:50:13
kdevelop-php/-2023-10-28 12:50:13
kdump-tools/-2023-10-28 12:50:13
kfourinline/-2023-10-28 12:50:13
kexec-tools/-2023-10-28 12:50:13
kdiff3/-2023-10-28 12:50:13
kfind/-2023-10-28 12:50:13
kdevelop-pg-qt/-2023-10-28 12:50:13
kfloppy/-2023-10-28 12:50:13
keditbookmarks/-2023-10-28 12:50:13
keepassxc/-2023-10-28 12:50:13
kel-agent/-2023-10-28 12:50:13
kelbt/-2023-10-28 12:50:13
kgamma5/-2023-10-28 12:50:13
kdevelop-python/-2023-10-28 12:50:13
kgames/-2023-10-28 12:50:13
kdiamond/-2023-10-28 12:50:13
kdocker/-2023-10-28 12:50:13
kdf/-2023-10-28 12:50:13
keurocalc/-2023-10-28 12:50:13
ktp-approver/-2023-10-28 12:50:12
ktp-kded-integration-module/-2023-10-28 12:50:12
kdeconnect/-2023-10-28 12:50:12
ktp-filetransfer-handler/-2023-10-28 12:50:12
kdegraphics-thumbnailers/-2023-10-28 12:50:12
kdebugsettings/-2023-10-28 12:50:12
ktp-text-ui/-2023-10-28 12:50:12
kde-spectacle/-2023-10-28 12:50:12
kdenetwork-filesharing/-2023-10-28 12:50:12
kdepim-runtime/-2023-10-28 12:50:12
ktp-auth-handler/-2023-10-28 12:50:12
kded/-2023-10-28 12:50:12
kdenlive/-2023-10-28 12:50:12
kdepim-addons/-2023-10-28 12:50:12
ktp-send-file/-2023-10-28 12:50:12
ktp-contact-list/-2023-10-28 12:50:12
ktp-call-ui/-2023-10-28 12:50:12
kdesdk-thumbnailers/-2023-10-28 12:50:12
kdesvn/-2023-10-28 12:50:12
ktp-desktop-applets/-2023-10-28 12:50:12
kcm-fcitx/-2023-10-28 12:50:11
kcalc/-2023-10-28 12:50:11
kbruch/-2023-10-28 12:50:11
kcharselect/-2023-10-28 12:50:11
kcheckers/-2023-10-28 12:50:11
kcron/-2023-10-28 12:50:11
kbibtex/-2023-10-28 12:50:11
kafkacat/-2023-10-28 12:50:11
ktp-accounts-kcm/-2023-10-28 12:50:11
kconfig-frontends/-2023-10-28 12:50:11
kawari8/-2023-10-28 12:50:11
kbreakout/-2023-10-28 12:50:11
kbd/-2023-10-28 12:50:11
kde-gtk-config/-2023-10-28 12:50:11
kcptun/-2023-10-28 12:50:11
kcolorchooser/-2023-10-28 12:50:11
kblackbox/-2023-10-28 12:50:11
kdc2tiff/-2023-10-28 12:50:11
katomic/-2023-10-28 12:50:11
kbtin/-2023-10-28 12:50:11
kbackup/-2023-10-28 12:50:11
kblocks/-2023-10-28 12:50:11
kcachegrind/-2023-10-28 12:50:11
kbounce/-2023-10-28 12:50:11
kde-cli-tools/-2023-10-28 12:50:11
kanagram/-2023-10-28 12:50:10
kapptemplate/-2023-10-28 12:50:10
kasumi/-2023-10-28 12:50:10
kappanhang/-2023-10-28 12:50:10
kapman/-2023-10-28 12:50:10
kanatest/-2023-10-28 12:50:10
kannel/-2023-10-28 12:50:10
kamailio/-2023-10-28 12:50:10
kamoso/-2023-10-28 12:50:10
kamera/-2023-10-28 12:50:10
kanshi/-2023-10-28 12:50:10
k2pdfopt/-2023-10-28 12:50:09
kalzium/-2023-10-28 12:50:09
kalign/-2023-10-28 12:50:09
kali/-2023-10-28 12:50:09
kalgebra/-2023-10-28 12:50:09
kaccounts-providers/-2023-10-28 12:50:09
kaffeine/-2023-10-28 12:50:09
k4dirstat/-2023-10-28 12:50:09
kalendar/-2023-10-28 12:50:09
kakoune/-2023-10-28 12:50:09
kalarm/-2023-10-28 12:50:09
kactivitymanagerd/-2023-10-28 12:50:09
kaidan/-2023-10-28 12:50:09
kallisto/-2023-10-28 12:50:09
kmail-account-wizard/-2023-10-28 12:46:20
keepassxc-browser/-2023-10-28 12:13:45
kconfiglib/-2023-10-28 12:08:36
karabo-bridge/-2023-10-28 12:08:36
kanjidraw/-2023-10-28 12:08:36
khronos-opencl-clhpp/-2023-10-28 12:06:20
khronos-opencl-headers/-2023-10-28 12:06:20
kotlinx-atomicfu/-2023-10-28 11:56:25
kotlinx-coroutines/-2023-10-28 11:56:25
kitchensink-clojure/-2023-10-28 11:56:24
knowl.js/-2023-10-28 11:56:10
kwartz-client/-2023-10-28 11:51:22
kytos-utils/-2023-10-28 11:51:22
kuttypy/-2023-10-28 11:51:21
kubectx/-2023-10-28 11:51:21
kup/-2023-10-28 11:51:21
kunststoff/-2023-10-28 11:51:21
kerberos-configs/-2023-10-28 11:51:18
kotlin/-2023-10-28 11:51:17
kpcli/-2023-10-28 11:51:17
konfont/-2023-10-28 11:51:16
knockpy/-2023-10-28 11:51:14
kmfl-keyboards-mywin/-2023-10-28 11:51:13
king/-2023-10-28 11:51:11
khal/-2023-10-28 11:51:04
keystone-tempest-plugin/-2023-10-28 11:51:04
keymapper/-2023-10-28 11:51:04
khronos-api/-2023-10-28 11:51:04
khard/-2023-10-28 11:51:04
kgb-bot/-2023-10-28 11:51:04
kephra/-2023-10-28 11:51:03
keychain/-2023-10-28 11:51:03
keepassx/-2023-10-28 11:51:03
kde-dev-scripts/-2023-10-28 11:51:02
kdeedu-data/-2023-10-28 11:51:01
kazam/-2023-10-28 11:51:00
kas/-2023-10-28 11:51:00
kanboard/-2023-10-28 11:50:59
kanjidic/-2023-10-28 11:50:59
kanboard-cli/-2023-10-28 11:50:59
kaptive/-2023-10-28 11:50:59
kanif/-2023-10-28 11:50:59
kapidox/-2023-10-28 11:50:59
kajongg/-2023-10-28 11:50:57
key-chord-el/-2023-10-28 11:46:16
kotlin-mode/-2023-10-28 11:46:16
kernel-handbook/-2023-10-28 11:45:38
kasmvnc/-2023-01-13 00:52:53
king-phisher/-2022-03-15 14:04:39
kxl/-2021-12-29 19:50:35
kwayland-server/-2021-12-29 19:50:35
kreport/-2021-12-29 19:50:33
kproperty/-2021-12-29 19:50:32
keyman-keyboardprocessor/-2021-12-29 19:50:29
klatexformula/-2021-12-29 19:50:28
kdiagram/-2021-12-29 19:50:26
kf5-kdepim-apps-libs/-2021-12-29 19:50:14
kalarmcal/-2021-12-29 19:50:07
keybinder/-2021-12-29 19:50:04
keybinder-3.0/-2021-12-29 19:50:04
kakasi/-2021-12-29 19:50:01
kxstitch/-2021-12-29 19:41:13
kwstyle/-2021-12-29 19:41:13
kwin-effect-xrdesktop/-2021-12-29 19:41:12
kwalletcli/-2021-12-29 19:41:11
ktechlab/-2021-12-29 19:41:09
ksysguard/-2021-12-29 19:41:09
ktimetracker/-2021-12-29 19:41:09
ksh/-2021-12-29 19:41:07
krb5-strength/-2021-12-29 19:41:05
kraptor/-2021-12-29 19:41:04
komi/-2021-12-29 19:41:01
kobodeluxe/-2021-12-29 19:40:57
knowthelist/-2021-12-29 19:40:56
kmplayer/-2021-12-29 19:40:55
kmscube/-2021-12-29 19:40:55
klystrack/-2021-12-29 19:40:53
klick/-2021-12-29 19:40:52
klavaro/-2021-12-29 19:40:50
kio-gopher/-2021-12-29 19:40:43
kile/-2021-12-29 19:40:42
kgx/-2021-12-29 19:40:40
kgb/-2021-12-29 19:40:39
keylaunch/-2021-12-29 19:40:38
keynav/-2021-12-29 19:40:38
ketm/-2021-12-29 19:40:37
kerneltop/-2021-12-29 19:40:37
kde-config-systemd/-2021-12-29 19:40:31
kcm-fcitx5/-2021-12-29 19:40:31
kchmviewer/-2021-12-29 19:40:30
kcollectd/-2021-12-29 19:40:30
kcc/-2021-12-29 19:40:29
kbdd/-2021-12-29 19:40:28
katarakt/-2021-12-29 19:40:28
kball/-2021-12-29 19:40:28
kanjipad/-2021-12-29 19:40:27
kbd-chooser/-2021-12-29 19:26:06
kytos-sphinx-theme/-2021-12-29 19:03:58
keras-applications/-2021-12-29 19:03:56
keras-preprocessing/-2021-12-29 19:03:56
khronos-opengl-man4/-2021-12-29 18:56:21
khronos-opencl-man/-2021-12-29 18:55:59
kxml2/-2021-12-29 18:30:00
knopflerfish-osgi/-2021-12-29 18:29:54
kdgcommons-java/-2021-12-29 18:29:16
kazocsaba-imageviewer/-2021-12-29 18:29:15
kupfer/-2021-12-29 18:12:04
kwalify/-2021-12-29 18:12:04
kubetail/-2021-12-29 18:12:03
kthresher/-2021-12-29 18:12:00
krop/-2021-12-29 18:11:56
krank/-2021-12-29 18:11:49
killer/-2021-12-29 18:11:18
kindleclip/-2021-12-29 18:11:18
keyringer/-2021-12-29 18:10:50
keyboards-rg/-2021-12-29 18:10:49
keepass2-plugin-keepasshttp/-2021-12-29 18:10:47
keepass2/-2021-12-29 18:10:47
kdeplasma-applets-xrdesktop/-2021-12-29 18:10:44
kanyremote/-2021-12-29 18:10:34
kamcli/-2021-12-29 18:10:32
kaboxer/-2021-12-29 18:10:26
kickseed/-2021-12-29 17:38:49